Regional Weather Roundup
Issued by NWS

Home | Current Version | Previous Version | Text Only | Print | Product List | Glossary On
Versions: 1 2 3 4 5 6 7 8 9 10 11 12 13 14 15 16 17 18 19 20 21 22 23 24 25 26 27 28 29 30 31 32 33 34 35 36 37 38 39 40 41 42 43 44 45 46 47 48 49 50
679
ASUS43 KTOP 190408
RWRKS

WEATHER ROUNDUP FOR KANSAS
NATIONAL WEATHER SERVICE GOODLAND KS
1000 PM CST SAT NOV 18 2017

NOTE:  "FAIR" INDICATES FEW OR NO CLOUDS BELOW 12,000 FEET WITH NO
SIGNIFICANT WEATHER AND/OR OBSTRUCTIONS TO VISIBILITY.

KSZ001>006-013>018-027>032-041>047-190500-
NORTHWEST KANSAS

CITY           SKY/WX    TMP DP  RH WIND       PRES   REMARKS
GOODLAND       CLEAR     25  15  66 W8        30.27R
HAYS           CLEAR     33  21  61 NW7       30.29R
HILL CITY      CLEAR     31  21  66 W8        30.29R
RUSSELL        CLEAR     34  23  64 NW6       30.26S
$$

KSZ061>065-074>080-084>089-190500-
SOUTHWEST KANSAS

CITY           SKY/WX    TMP DP  RH WIND       PRES   REMARKS
DODGE CITY     CLEAR     29  16  58 W7        30.30R
ELKHART        CLEAR     34  18  52 SW8       30.31R
GARDEN CITY    CLEAR     35  16  45 NW9       30.30R
GREAT BEND     CLEAR     30  24  78 W8        30.28R
LIBERAL        CLEAR     26  14  60 W8        30.32R
PRATT          CLEAR     31  22  70 W6        30.29R
$$

KSZ066>073-081>083-090>101-190500-
SOUTHEAST KANSAS

CITY           SKY/WX    TMP DP  RH WIND       PRES   REMARKS
CHANUTE        CLEAR     40  29  64 NW6       30.23R
COFFEYVILLE    CLEAR     41  30  65 NW6       30.24R
HUTCHINSON     CLEAR     31  24  75 W3        30.27R
MEDICINE LODGE   N/A     34  23  64 NW3       30.29R
NEWTON         CLEAR     37  23  56 NW6       30.26R
PARSONS        CLEAR     34  31  88 NW5       30.25R
WICHITA INTL   CLEAR     38  26  62 NW8       30.26R
WICHITA JABRA  CLEAR     40  25  55 NW9       30.26R
WICHITA MCCONL CLEAR     42  23  46 NW7       30.26R
WINFIELD       CLEAR     36  26  67 NW8       30.28R
$$

KSZ007>012-019>026-033>040-048>060-102>105-190500-
NORTHEAST KANSAS

CITY           SKY/WX    TMP DP  RH WIND       PRES   REMARKS
CONCORDIA      CLEAR     36  25  64 W6        30.24R
EMPORIA        CLEAR     37  26  64 NW6       30.23R
LAWRENCE       CLEAR     35  28  75 NW8       30.21R
MANHATTAN      CLEAR     38  26  62 VRB3      30.24R
MARYSVILLE     CLEAR     32  27  80 NW5       30.22S
OLATHE IND     CLEAR     38  27  64 NW10      30.20R WCI  31
OLATHE EXE     CLEAR     40  26  57 N9        30.19R
SALINA         CLEAR     36  25  64 W6        30.27R
TOPEKA BILLARD CLEAR     39  28  64 NW7       30.22R
TOPEKA FORBES  CLEAR     36  28  73 NW9       30.22R
$$




USA.gov is the U.S. government's official web portal to all federal, state and local government web resources and services.